[ ตารางข้อมูล ] [ Min-Max ] [ วันนี้4 ] [ วันนี้2 ] [ เทียบ3วัน A ] [ เทียบ4วัน B ]   

วันนี้2   [ ◀ ช่วงเก่ากว่า ] [ ช่วงที่ 169 ] [ ช่วงใหม่กว่า ▶ ] [ ล่าสุด ]    [ 3 ชั่วโมง ] [ 6 ชั่วโมง ] [ 12 ชั่วโมง ] [ 24 ชั่วโมง ]   วันนี้2

อุณภูมิตู้ Knockdown4529  ราย 3 ชั่วโมง  ที่วัดได้ ในช่วงวันเวลา 11/04/2026 (20:58) ถึง 11/04/2026 (23:58) 
ความชื้นในตู้ Knockdown4529  ราย 3 ชั่วโมง  ที่วัดได้ ในช่วงวันเวลา 11/04/2026 (20:58) ถึง 11/04/2026 (23:58) 

 
DS18B20SHTC3 
IDDate d/m/Y & Timedata1
สูง
data2
ต่ำ
data3
นอก
temp
pcb
hum
pcb
Time
 10997  11/04/2026 23:55:42  30.5  30.6  28.6  30.6  71.7  23:55 
 10996  11/04/2026 23:51:01  30.6  30.6  28.5  30.5  71.6  23:51 
 10995  11/04/2026 23:46:19  30.6  30.7  28.7  30.6  71.5  23:46 
 10994  11/04/2026 23:41:37  30.6  30.7  28.8  30.5  71.6  23:41 
 10993  11/04/2026 23:36:55  30.6  30.7  28.7  30.6  71.6  23:36 
 10992  11/04/2026 23:32:13  30.6  30.7  28.7  30.6  71.6  23:32 
 10991  11/04/2026 23:27:32  30.6  30.8  28.9  30.6  71.5  23:27 
 10990  11/04/2026 23:22:48  30.7  30.8  28.7  30.6  71.5  23:22 
 10989  11/04/2026 23:18:03  30.7  30.8  28.8  30.6  71.6  23:18 
 10988  11/04/2026 23:13:21  30.7  30.8  29.0  30.7  71.5  23:13 
 10987  11/04/2026 23:08:40  30.8  30.8  29.2  30.6  71.5  23:08 
 10986  11/04/2026 23:03:58  30.8  30.8  29.3  30.7  71.5  23:03 
 10985  11/04/2026 22:59:15  30.8  30.9  29.3  30.8  71.5  22:59 
 10984  11/04/2026 22:54:31  30.8  30.9  29.4  30.6  71.6  22:54 
 10983  11/04/2026 22:49:48  30.8  30.9  29.2  30.7  71.6  22:49 
 10982  11/04/2026 22:45:06  30.8  30.9  29.1  30.8  71.4  22:45 
 10981  11/04/2026 22:40:24  30.9  30.9  29.5  30.8  71.4  22:40 
 10980  11/04/2026 22:35:43  30.9  30.9  29.7  30.8  71.5  22:35 
 10979  11/04/2026 22:31:02  30.9  31.0  30.0  31.0  71.5  22:31 
 10978  11/04/2026 22:26:18  30.9  31.0  29.9  30.8  71.4  22:26 
 10977  11/04/2026 22:21:35  30.9  31.0  30.0  31.0  71.4  22:21 
 10976  11/04/2026 22:16:54  30.9  31.1  29.9  31.1  71.5  22:16 
 10975  11/04/2026 22:12:12  30.9  31.1  30.0  31.0  71.5  22:12 
 10974  11/04/2026 22:07:29  31.0  31.1  30.0  31.0  71.3  22:07 

Data every 5 minute.


ใช้เวลาประมวลผล 0.00185 วินาที